Location: Penton Mewsey
(51.2167°N, 1.5167°W)
Time: 00:58:31
(UTC+00:00)

NOSS 2-1 (C) - Pass Details

Date: 30 March 2020
Orbit: 450 x 1753 km, 63.3° (Epoch: 20 April)

Event Time Altitude Azimuth Distance (km) Brightness Sun altitude
Rises 19:04:21 0° 229° (SW) 2,455 7.2 -5.1°
Reaches altitude 10° 19:06:23 10° 231° (SW) 1,583 6.2 -5.4°
Maximum altitude 19:09:46 72° 316° (NW) 504 3.3 -5.9°
Drops below altitude 10° 19:13:37 10° 42° (NE) 1,797 5.7 -6.5°
Sets 19:16:03 0° 45° (NE) 2,831 6.7 -6.9°
